Theta_e
352 351 350 350 350 349 348 349 348 348 349 348 348 347 346 345 343 344 344 342 342 342 341 341 341 340 339 340 340 340 339 339 338 337 336 335 334 333 332 331 331 330 329 329 328 327 327 327 327 326 325 325 323 322 321 320 319 318 316 316 316 317 318 318 316 318 318 315 313 310 308 308 307 306 306 306 306 305 304 304 306 306 305 305 306
351 351 350 350 350 348 348 348 348 348 348 348 348 347 346 346 344 344 344 343 342 342 342 341 340 340 339 339 339 339 340 339 338 336 335 334 333 333 332 332 330 329 329 328 327 326 326 326 325 325 323 322 321 319 318 317 316 315 314 314 315 315 316 314 312 315 317 314 312 310 308 308 307 306 305 305 306 305 304 304 305 306 305 305 305
351 351 351 350 349 348 348 348 348 348 348 349 348 348 347 346 344 344 344 343 342 342 342 341 341 340 339 338 338 339 339 338 337 336 335 334 333 332 332 331 330 329 328 327 326 324 324 324 323 323 321 320 319 317 315 314 313 312 311 311 312 312 313 312 310 314 317 314 311 309 308 307 306 306 305 305 305 305 304 304 305 305 305 305 305
352 352 352 351 350 349 348 348 347 348 348 349 349 348 347 346 345 344 344 343 343 343 342 342 341 340 339 338 338 338 338 338 337 335 334 334 333 332 331 330 329 328 327 326 325 323 323 322 322 321 320 319 318 315 313 312 311 310 310 310 310 311 312 312 312 315 315 313 311 309 308 307 305 305 305 305 305 305 304 304 305 305 306 306 306
351 353 352 351 350 349 348 348 347 347 348 348 348 348 348 347 345 344 344 344 343 343 342 342 340 340 339 338 338 338 338 338 336 335 334 334 333 332 330 328 328 328 326 325 323 322 322 321 321 320 319 318 316 314 312 312 310 309 310 309 310 313 314 313 312 313 312 312 310 308 308 307 306 305 305 304 305 306 306 305 305 305 306 306 306
347 352 352 350 350 349 348 348 347 347 348 348 348 349 348 347 345 344 344 344 344 343 343 342 341 340 340 338 337 337 338 338 336 335 334 333 332 331 329 328 328 327 325 324 322 320 321 320 320 319 318 317 315 313 312 311 310 310 309 308 311 314 313 311 309 309 310 310 309 308 307 307 306 306 305 304 305 305 305 306 306 306 306 306 306
346 351 350 349 350 349 348 347 347 347 347 347 348 349 348 347 346 344 344 344 344 344 343 342 341 341 340 339 337 336 337 338 337 335 334 333 332 329 328 327 328 327 325 323 321 319 319 319 319 318 317 316 315 313 312 311 310 310 309 309 312 312 308 307 307 308 309 309 308 308 307 306 306 307 306 305 304 304 304 305 306 306 307 307 307
349 351 350 349 349 348 347 346 346 347 347 347 348 348 348 347 346 345 344 344 344 344 343 342 342 341 340 339 338 336 337 337 336 335 334 332 329 328 327 327 327 326 323 322 320 319 318 318 318 317 315 315 314 313 312 312 310 310 309 310 310 307 305 307 308 307 307 308 308 308 307 307 307 307 307 306 305 305 306 307 306 306 306 307 307
349 349 349 349 349 347 347 347 346 347 346 346 347 348 348 347 346 345 344 343 344 343 343 342 342 341 341 339 338 336 336 336 336 334 333 330 328 327 326 326 326 324 322 320 319 318 317 317 317 316 314 313 313 312 312 311 310 310 310 310 308 305 306 307 307 306 307 308 308 307 307 308 307 307 307 306 306 308 308 307 306 306 307 307 306
347 349 348 348 348 347 347 347 347 346 345 345 346 347 347 347 346 345 344 343 343 343 343 342 342 341 341 339 338 337 336 336 335 333 330 328 327 326 326 326 326 324 321 319 318 317 316 316 316 314 313 312 312 311 310 309 309 310 310 309 307 305 306 307 307 307 307 307 307 307 308 308 307 307 308 307 308 307 306 306 307 307 307 307 307
343 348 348 348 348 347 347 347 346 345 345 345 345 346 347 346 346 345 344 343 342 343 343 342 342 341 340 339 339 337 336 335 333 331 329 327 327 326 325 326 326 324 321 319 318 317 316 316 315 313 311 311 311 309 309 307 307 308 308 307 306 306 307 308 307 306 307 307 307 307 307 307 307 308 307 307 308 306 306 306 307 307 307 307 307
340 346 348 348 348 347 346 347 346 345 344 344 344 345 346 346 346 345 344 343 342 343 342 342 341 341 340 339 338 337 336 334 331 329 328 328 327 326 326 326 325 323 320 318 317 316 315 315 314 312 310 310 309 308 306 305 305 306 306 306 305 306 308 309 308 307 307 307 307 307 307 307 308 309 307 306 307 307 307 307 306 307 308 308 307
341 346 347 347 348 347 347 346 346 345 345 344 344 344 346 346 345 344 343 342 342 342 342 341 341 340 340 339 338 336 334 331 330 330 329 328 327 326 325 325 324 322 320 318 317 316 315 315 314 312 310 310 308 306 304 301 301 303 305 305 304 306 307 308 308 308 308 307 307 308 308 307 308 308 307 307 307 307 306 306 307 308 308 307 306
343 347 347 347 348 347 347 347 345 345 344 343 343 344 345 345 344 344 343 342 342 342 342 341 340 340 339 339 337 335 332 330 330 330 329 328 327 325 325 324 323 322 320 317 316 315 314 314 314 312 310 309 307 306 304 302 300 301 303 303 303 305 306 306 306 306 306 308 309 309 308 308 308 308 308 307 306 305 305 306 308 308 307 306 305
343 346 346 346 347 347 347 346 345 345 344 343 343 343 344 344 344 343 342 341 342 341 341 341 340 339 339 338 336 334 332 331 331 330 329 329 326 325 326 325 323 322 319 317 316 315 314 314 314 312 309 308 306 306 306 305 303 302 303 302 302 303 304 303 304 304 304 306 309 310 308 308 307 308 308 307 306 305 305 306 306 305 304 305 306
342 344 345 346 346 346 346 344 344 345 344 343 343 343 344 344 344 343 341 341 342 341 340 340 339 339 339 337 336 334 332 332 332 330 329 329 326 325 326 327 324 321 319 316 315 314 314 314 313 311 310 308 306 306 307 307 306 305 304 303 302 303 303 301 302 303 303 304 306 308 309 308 306 306 308 307 306 306 306 305 304 305 306 307 307
341 342 345 345 344 345 346 344 344 344 343 343 343 343 343 344 343 343 341 341 341 340 339 339 339 339 337 336 335 334 332 331 331 330 329 329 326 324 325 325 322 320 318 316 314 314 314 314 313 312 311 310 307 305 306 307 307 305 304 303 303 305 305 303 300 299 300 302 303 305 307 307 306 305 305 305 303 302 302 303 303 305 306 306 306
342 342 343 344 344 344 345 344 344 344 343 343 343 343 343 343 343 341 340 340 340 339 338 338 338 338 337 336 336 334 331 331 331 330 330 328 326 323 323 323 321 318 317 315 314 314 314 313 312 312 313 311 307 305 306 307 307 305 303 304 305 306 307 307 303 299 298 299 300 302 304 306 305 305 304 301 299 298 299 301 303 303 304 305 305
340 340 342 344 343 343 343 343 344 344 343 343 343 343 342 343 342 340 340 340 340 339 338 338 338 337 336 336 335 333 331 330 330 330 329 328 326 323 322 321 319 318 317 315 314 314 313 312 311 311 313 312 308 305 305 306 307 305 304 305 306 307 307 309 308 304 299 298 299 300 300 302 303 303 301 299 298 298 298 300 302 302 303 304 305
336 334 338 343 343 342 343 343 342 343 343 342 343 343 342 342 341 340 339 340 339 338 337 337 337 337 336 335 333 332 330 330 329 329 329 327 325 322 321 320 318 317 316 315 314 314 313 312 310 310 312 312 309 306 304 304 306 306 306 306 307 307 307 307 309 308 304 301 301 301 301 301 301 301 301 301 300 299 298 299 301 302 303 303 304
337 335 337 341 341 340 341 341 341 341 342 342 342 343 341 340 340 339 339 339 339 338 337 337 337 336 336 334 332 331 330 329 329 328 328 327 324 322 320 319 318 317 315 315 314 313 313 312 309 309 311 311 309 307 304 303 304 306 306 306 306 306 305 305 307 308 307 305 304 304 303 303 303 302 303 303 304 303 302 300 300 301 302 303 304
339 339 338 340 339 339 339 339 340 341 342 343 342 341 340 339 339 339 339 339 339 337 336 336 336 336 335 334 332 331 330 329 329 327 326 325 323 321 320 319 318 316 315 315 314 312 312 312 310 308 309 310 309 307 304 302 302 305 306 305 305 304 303 304 307 307 306 305 305 305 304 304 304 304 305 305 305 306 306 304 303 303 303 303 304
339 340 340 340 340 340 340 340 341 343 343 342 341 340 339 339 339 339 340 339 337 336 335 334 334 335 335 333 332 331 329 328 328 326 324 323 322 321 320 319 317 315 315 314 312 311 312 313 310 308 307 308 307 305 304 302 301 304 305 304 303 302 302 304 307 307 305 304 304 305 305 305 305 305 305 306 305 305 306 306 306 305 305 305 305
341 340 341 341 341 340 340 341 343 343 342 340 340 339 339 339 339 339 339 337 336 334 333 333 333 333 333 332 332 331 327 325 325 325 323 322 320 320 320 318 316 315 315 313 311 311 312 311 310 307 306 307 305 303 303 302 300 302 304 303 302 302 302 303 304 305 304 303 303 303 304 304 305 304 304 305 305 305 305 305 305 306 307 306 305
341 341 341 342 342 341 342 343 343 342 341 339 339 338 339 339 339 339 337 336 335 334 333 332 332 332 332 331 331 330 326 322 322 323 323 321 320 318 318 317 315 314 313 312 311 311 311 310 309 308 306 305 303 302 303 302 299 299 303 303 301 302 302 302 303 303 303 303 302 302 303 304 304 304 304 304 305 305 305 305 306 306 306 305 304
338 342 342 342 342 342 343 342 341 340 340 339 338 338 338 339 338 337 336 336 335 335 333 332 332 333 333 331 330 329 325 319 317 319 320 320 318 316 315 315 314 312 312 312 310 310 310 310 309 308 306 304 302 302 304 303 298 296 299 301 301 302 302 302 304 304 303 303 303 302 302 303 303 303 304 304 305 305 305 305 306 305 304 304 304
333 339 342 342 342 343 342 341 341 340 339 338 338 338 338 338 336 335 335 336 335 333 332 331 332 332 332 330 329 328 324 317 314 316 318 317 315 314 313 313 312 311 312 311 309 309 310 310 309 308 306 303 302 302 304 303 299 295 295 296 299 302 303 304 305 306 305 305 303 302 302 302 302 303 303 304 304 304 305 305 304 304 304 304 305
331 336 341 342 341 341 342 340 340 340 338 338 338 338 337 336 335 334 334 334 335 332 330 331 332 331 330 329 327 324 320 315 313 317 319 316 313 312 311 311 311 310 310 310 309 309 310 309 308 307 304 303 302 302 303 303 301 298 297 297 299 302 304 305 305 306 307 306 305 304 303 302 302 302 302 303 304 305 305 304 303 303 304 305 305
328 332 339 340 340 340 341 340 339 339 338 337 337 337 336 335 334 334 334 333 333 332 330 330 330 329 329 329 326 322 319 316 315 318 321 320 317 314 311 310 310 309 309 309 309 309 309 307 306 304 303 302 302 303 303 303 302 301 301 302 302 303 305 306 306 306 307 307 307 305 304 302 302 301 302 303 304 304 304 304 304 304 305 305 305
327 328 332 335 338 340 339 339 339 338 337 338 337 335 334 335 335 335 334 333 332 331 330 329 329 329 330 329 326 323 321 320 319 321 321 321 320 317 314 311 310 309 308 308 308 308 308 307 306 305 304 303 304 304 304 304 304 304 303 304 304 305 306 306 306 306 306 307 307 306 304 303 302 302 302 302 302 303 303 303 304 305 305 305 305
329 329 328 330 335 339 339 338 338 338 337 337 336 333 331 332 333 334 334 333 332 331 331 330 329 329 330 329 326 323 322 322 323 323 322 320 318 315 312 311 310 309 307 307 308 308 308 308 307 307 306 305 305 305 305 306 306 306 305 305 305 306 306 307 307 307 307 306 306 305 305 303 302 302 302 301 302 303 303 304 304 305 305 305 305
329 330 329 329 332 335 336 336 337 338 338 337 335 332 329 328 328 329 330 332 331 330 329 329 328 329 329 328 325 323 322 322 322 322 321 319 316 313 311 311 311 309 307 306 308 309 308 308 308 307 307 306 306 306 306 306 306 306 307 307 306 306 306 307 307 308 307 306 306 305 304 303 302 302 301 301 302 303 303 304 305 304 304 304 304
329 329 329 329 330 331 332 334 334 334 335 335 334 332 329 327 326 325 325 328 330 329 328 328 327 328 328 326 325 325 325 323 322 321 319 316 313 311 311 311 310 309 307 307 308 309 308 308 308 307 307 307 307 306 307 307 307 307 307 308 308 307 307 307 307 308 308 307 306 305 303 302 302 302 302 302 302 302 302 303 303 303 303 303 304
331 330 329 330 331 331 333 334 334 332 332 333 333 332 330 329 327 325 322 322 323 324 324 325 326 326 325 325 324 325 325 323 321 320 318 315 311 309 309 308 309 308 307 307 308 308 308 308 308 307 308 308 308 308 307 307 308 308 308 308 308 308 308 308 308 308 307 306 306 305 303 302 302 302 302 302 302 302 303 302 302 301 302 303 304
330 329 329 329 330 332 334 334 333 334 334 333 333 332 330 328 327 324 322 320 320 320 320 321 322 323 323 323 323 323 323 321 319 317 316 313 309 307 306 306 306 306 306 307 308 309 308 308 308 308 309 309 309 308 308 308 308 308 309 309 309 308 308 308 308 307 307 306 306 305 304 303 303 302 302 302 302 302 302 301 300 301 302 303 303
328 327 327 327 327 329 331 331 331 332 333 333 332 331 329 327 326 325 323 322 321 319 317 316 318 321 321 321 321 320 320 319 318 316 315 311 307 306 306 305 305 305 306 307 308 309 309 309 309 310 310 310 310 310 309 309 309 309 309 309 308 308 309 308 308 308 307 307 306 305 304 304 304 303 303 303 303 303 301 300 300 300 302 302 303
327 326 325 326 325 326 327 328 328 329 329 329 329 328 327 326 324 323 323 321 319 316 314 312 314 315 315 316 318 318 318 318 317 316 314 310 306 306 307 306 306 306 307 307 308 308 309 310 310 311 311 311 311 310 310 310 310 310 310 309 308 309 309 308 308 308 307 306 306 305 304 304 304 304 304 304 303 303 302 301 301 301 301 301 301
324 323 322 323 324 325 325 325 325 326 326 325 325 325 324 322 321 320 320 318 316 314 313 312 312 311 310 311 314 315 315 314 312 310 308 306 305 306 307 307 307 306 307 308 308 308 309 310 311 311 311 311 311 311 311 311 311 311 311 309 309 308 308 308 308 308 307 306 306 305 305 305 304 304 304 304 303 302 302 301 301 301 300 300 301
320 319 318 319 321 322 322 321 321 322 322 322 322 322 321 320 318 318 317 315 314 315 314 313 312 312 309 308 310 312 311 308 305 303 302 302 304 306 307 307 307 307 307 307 308 309 310 311 311 311 311 311 312 312 312 312 312 311 311 310 309 308 308 308 307 307 307 306 306 305 305 304 304 304 303 303 303 302 302 301 301 300 299 299 300
317 316 315 316 317 317 317 318 318 319 319 319 318 318 318 317 316 317 316 314 314 315 315 314 314 313 309 307 308 309 308 305 302 302 301 302 303 306 307 307 307 307 307 308 309 309 310 311 311 310 310 311 312 312 312 312 312 311 310 309 308 308 308 307 307 307 306 306 306 305 304 304 303 303 303 302 302 302 302 301 300 300 299 299 300
315 314 313 313 314 314 315 315 316 316 316 316 316 316 316 316 315 315 315 314 313 314 315 315 315 313 309 308 308 308 307 305 303 302 302 302 304 306 307 307 307 307 308 309 310 310 311 311 311 311 311 312 312 313 313 312 311 311 311 310 309 308 307 307 307 306 306 305 305 304 303 302 302 302 302 302 302 302 302 301 301 300 299 298 299
313 312 312 312 312 312 312 312 313 313 313 314 314 314 314 315 315 315 314 314 313 313 314 314 313 310 308 307 307 307 306 305 303 303 303 303 304 306 308 308 309 309 309 309 310 311 311 311 312 312 312 312 312 312 312 310 309 310 310 310 308 307 307 307 306 306 305 304 303 303 302 302 302 302 302 302 302 302 302 301 300 299 299 299 299
312 311 311 311 311 311 311 311 311 311 311 311 312 312 312 313 313 313 313 312 311 312 312 312 310 307 306 305 306 306 306 304 303 303 303 304 305 307 308 309 310 310 310 310 311 311 311 311 311 311 311 311 311 311 311 309 309 309 309 308 308 308 307 307 306 305 304 303 302 302 301 301 301 302 302 302 302 302 301 300 300 299 298 298 300
313 312 311 310 310 310 310 309 309 309 309 309 310 310 310 311 311 311 311 311 310 310 310 309 307 305 304 304 306 307 307 305 304 304 304 304 306 308 309 310 310 310 310 310 310 310 310 310 310 311 311 310 309 309 309 309 308 308 308 308 308 307 306 306 305 304 304 303 302 301 300 300 300 301 302 302 301 301 300 299 299 298 298 299 300
313 312 311 310 309 309 308 308 308 308 308 309 309 309 309 309 309 309 309 309 308 307 307 306 304 303 303 304 306 308 307 306 305 305 305 306 307 308 308 309 309 309 309 309 309 309 309 310 310 310 310 310 308 308 309 309 308 308 308 307 306 305 305 305 304 303 302 302 301 301 300 300 300 300 301 301 300 299 299 299 298 298 298 299 301
311 311 311 310 310 309 309 309 308 308 308 308 308 308 307 307 307 307 307 307 306 305 304 303 303 303 303 304 306 307 307 306 305 305 305 306 307 307 307 308 308 308 308 308 309 309 309 309 309 309 309 308 308 308 308 307 306 306 305 305 304 304 303 303 303 302 301 301 301 300 300 300 300 299 299 299 298 298 298 298 298 297 298 299 301
311 311 311 311 310 310 310 309 308 308 308 308 307 307 307 306 306 306 306 306 305 304 303 303 302 303 303 304 305 306 306 306 305 305 305 306 306 306 307 307 308 307 307 307 308 308 308 308 308 307 307 306 306 306 306 305 304 304 303 303 303 302 302 301 301 300 300 300 300 299 298 298 298 298 298 297 296 297 298 298 298 298 298 299 300
311 311 311 311 311 311 312 311 310 310 309 308 307 306 306 306 306 305 305 305 304 304 303 303 303 303 304 305 305 305 305 305 305 305 305 305 305 306 306 306 307 307 307 307 307 307 307 307 306 306 305 305 305 305 305 304 303 303 302 301 301 301 300 300 300 300 300 299 299 298 297 297 298 298 298 297 297 297 298 299 299 298 298 300 301
312 312 312 311 312 312 313 313 312 311 310 309 308 308 307 307 306 306 305 305 304 304 303 303 303 304 304 305 305 305 305 304 304 304 304 304 305 305 305 306 306 306 307 306 306 306 306 306 305 304 304 304 303 303 303 303 303 303 302 301 301 301 300 299 299 300 299 299 298 298 298 298 299 300 300 300 299 299 299 300 300 299 299 300 301
312 313 313 313 313 313 313 313 313 313 313 312 311 310 309 309 308 307 307 306 305 305 304 303 303 304 304 304 304 304 304 304 304 303 304 304 304 304 305 305 306 306 305 305 305 305 305 305 304 303 303 302 301 301 301 301 301 301 302 302 302 301 300 299 299 299 300 300 300 299 298 299 300 301 301 301 301 300 300 300 300 300 300 300 301
308 309 310 312 312 313 313 314 314 314 314 313 313 312 311 310 309 308 307 307 306 305 305 304 304 303 303 303 303 303 303 304 303 303 303 304 304 304 304 305 305 305 305 304 304 304 304 303 302 301 301 301 300 300 299 299 299 300 302 302 302 302 301 300 300 299 300 300 300 300 300 300 300 301 301 301 301 301 301 300 300 300 301 301 301
Wind_Speed
29 29 29 29 29 29 29 30 31 32 33 32 32 32 31 30 30 28 30 31 29 29 29 29 29 29 27 26 25 24 24 24 24 23 22 21 20 20 19 19 19 18 17 17 17 17 17 17 18 17 15 15 15 13 13 13 12 12 11 11 11 10 9 9 8 5 6 6 7 6 6 8 8 9 8 7 7 7 6 7 8 8 8 8 11
29 29 29 30 31 30 29 29 30 31 33 33 33 33 31 31 30 29 30 31 29 29 30 30 30 30 28 28 28 26 25 25 25 24 23 22 21 21 21 20 20 18 18 18 17 16 16 16 17 17 15 15 14 13 13 13 12 12 12 11 10 10 10 11 11 8 9 8 7 7 8 9 8 8 8 7 7 7 7 7 7 7 6 6 8
30 30 30 31 32 31 30 30 30 31 33 34 33 33 32 31 30 29 30 30 29 30 31 31 31 31 29 29 29 27 26 25 25 25 25 24 23 22 21 21 20 19 18 17 17 16 16 16 16 16 15 14 14 12 11 12 11 11 12 11 10 10 10 11 11 7 9 10 9 10 10 9 9 8 7 7 7 7 7 8 7 6 7 6 7
30 30 30 31 32 32 32 30 30 31 33 34 35 35 32 31 31 31 31 30 29 30 31 31 31 31 30 30 30 28 27 26 26 25 26 26 25 23 21 20 18 18 17 16 16 16 16 16 16 16 15 14 14 12 11 11 11 10 11 10 10 10 9 10 8 4 8 9 10 11 10 8 8 8 7 7 8 7 7 6 6 7 8 8 7
29 30 30 30 31 33 33 31 30 31 32 34 35 35 34 32 32 32 32 31 31 31 31 32 32 32 32 32 31 29 28 27 26 26 27 26 25 24 21 19 17 16 16 16 16 16 16 16 16 16 15 14 14 13 12 12 11 10 10 10 10 9 8 8 7 5 6 8 9 9 8 8 8 7 7 7 7 8 8 6 6 7 7 8 8
29 29 29 29 30 32 32 31 31 32 33 34 35 35 34 32 30 32 32 32 32 32 32 32 32 32 32 32 32 31 29 28 27 27 28 26 25 23 20 17 17 16 16 16 16 16 16 17 16 16 16 15 15 14 13 13 12 10 11 11 10 10 9 8 7 7 8 8 8 8 8 8 7 7 7 7 5 6 6 6 7 8 8 8 9
31 29 29 29 30 31 32 32 32 33 33 34 34 33 33 32 32 33 33 31 32 33 33 33 32 32 32 32 32 32 30 29 28 28 28 27 25 22 19 17 17 17 16 16 16 17 17 17 17 16 16 16 15 15 14 14 12 11 12 11 10 11 10 9 9 9 10 9 9 9 8 8 8 7 7 6 5 6 6 6 6 7 7 7 8
30 28 28 29 29 30 32 32 33 33 32 33 34 33 33 35 34 33 32 31 32 34 33 32 31 31 33 32 32 32 30 29 29 29 28 27 24 21 19 18 17 16 16 16 17 17 17 17 17 17 17 16 16 15 16 15 13 12 12 11 11 11 10 10 10 10 10 9 9 9 9 9 8 7 6 5 5 7 6 5 6 6 7 8 9
29 28 28 29 29 30 31 31 31 31 30 32 34 33 33 34 33 31 32 32 32 33 33 32 30 31 33 33 32 32 31 30 30 31 28 26 23 21 20 19 17 16 16 17 17 17 18 17 17 17 17 17 17 17 17 16 15 14 13 12 12 12 11 10 11 11 10 10 9 9 9 8 8 8 7 7 6 5 2 3 6 7 8 9 9
28 28 29 29 30 30 31 31 30 31 31 32 35 35 34 33 32 31 32 34 33 33 32 31 31 31 33 33 32 31 31 31 33 32 30 26 24 22 21 19 18 18 17 17 18 18 18 17 17 18 19 19 20 20 19 19 18 15 14 14 13 13 12 11 11 11 10 10 10 9 8 8 8 8 8 7 6 3 2 4 6 7 8 9 9
29 29 29 29 30 31 31 31 30 31 32 33 35 36 34 32 32 31 32 34 33 32 32 30 30 31 32 34 33 30 29 31 34 34 32 29 26 24 22 21 20 19 18 18 18 18 19 17 17 20 22 22 22 22 21 21 20 18 16 16 16 15 13 12 12 11 10 10 9 8 8 8 8 7 7 6 5 5 5 5 6 6 7 7 8
32 30 29 29 30 31 31 31 31 32 33 33 34 35 33 32 32 31 31 33 33 32 31 30 29 30 31 33 32 29 28 31 35 36 34 32 29 25 22 21 21 19 18 19 19 19 19 18 17 20 22 22 23 23 22 22 21 19 18 18 18 17 14 13 12 10 10 9 8 8 8 7 7 7 6 6 5 5 5 5 6 7 7 7 8
34 30 29 30 30 31 30 31 32 32 32 33 35 35 33 32 34 33 32 34 33 31 32 31 30 30 31 32 30 26 27 33 36 37 35 34 32 26 22 21 21 19 19 20 19 19 20 19 17 17 20 22 22 21 21 21 21 21 19 19 19 18 16 14 11 10 10 7 6 8 8 6 6 6 6 5 4 4 4 5 6 6 6 8 9
33 30 29 30 30 31 31 31 32 32 32 33 34 35 35 35 36 34 34 35 33 33 33 31 29 30 31 32 29 25 29 36 38 38 37 36 34 29 22 20 20 20 20 20 20 20 20 20 18 17 20 22 21 19 19 20 21 21 20 19 19 18 18 17 13 12 12 8 4 6 7 5 4 4 5 5 4 4 5 5 5 6 7 9 11
31 30 30 31 31 31 32 32 32 32 33 33 34 35 36 36 35 34 35 35 34 33 33 30 29 30 31 31 28 25 30 37 39 39 38 37 36 32 24 20 20 19 19 20 20 20 20 20 18 18 20 22 22 20 19 18 18 18 17 16 15 16 18 18 15 14 13 8 4 3 5 7 6 4 5 5 4 4 5 6 6 7 9 11 13
31 30 29 31 32 32 33 33 32 32 32 33 33 35 37 36 35 34 36 35 31 29 31 32 31 30 31 31 27 25 31 37 38 40 40 38 38 35 26 21 20 19 19 20 20 19 20 20 19 19 20 22 23 23 20 18 17 16 14 13 13 13 14 16 16 15 13 12 9 6 6 9 10 9 9 8 5 3 4 6 7 9 10 11 11
30 30 30 30 32 32 33 33 32 32 32 33 35 36 37 37 35 35 37 36 31 29 32 34 32 29 31 33 28 25 32 38 39 40 41 40 39 36 27 20 20 19 19 20 20 19 20 21 20 19 20 21 24 25 23 19 17 16 15 15 14 12 12 14 17 19 17 16 15 12 9 10 12 12 12 11 9 7 5 6 7 8 9 10 9
28 28 30 31 31 32 33 33 33 33 33 34 35 36 37 37 36 36 37 34 30 32 36 33 30 31 34 34 29 27 33 39 39 40 42 42 42 38 28 21 20 19 18 19 20 19 20 22 21 19 19 22 26 28 26 21 18 18 17 16 16 14 13 13 15 18 18 17 17 16 14 13 14 14 14 13 12 10 8 8 8 8 8 9 9
25 27 29 30 30 31 32 33 32 33 33 33 35 36 35 34 35 37 36 31 29 33 35 30 28 32 34 33 30 28 33 39 40 40 43 43 43 39 29 21 20 20 19 20 20 18 19 22 23 19 18 22 26 28 29 24 18 17 18 17 16 15 14 13 13 15 17 18 17 17 17 16 16 16 15 14 13 11 11 11 10 9 10 11 10
26 29 30 28 28 29 30 31 31 32 32 32 34 34 33 33 36 36 33 30 30 33 33 30 31 33 33 32 29 26 31 39 40 40 43 44 44 39 28 21 21 21 20 20 19 19 18 20 24 22 19 21 25 27 30 26 17 15 17 16 15 15 14 13 13 12 14 15 15 14 15 14 15 15 14 14 14 14 14 14 13 12 11 11 11
28 30 29 27 28 29 30 32 31 31 32 32 29 29 32 35 36 35 32 30 31 33 32 30 31 30 28 28 27 24 29 37 41 41 42 45 46 40 29 23 23 22 21 20 20 20 19 19 25 26 20 20 23 25 27 26 19 14 15 15 14 14 14 13 13 12 11 11 12 12 12 12 13 14 14 14 14 14 14 15 16 15 13 12 12
25 26 27 26 28 30 29 29 30 29 30 29 26 27 33 35 33 33 33 31 32 35 33 28 27 27 25 26 25 23 26 33 39 42 43 46 48 42 31 26 26 23 22 21 20 20 19 18 24 29 24 20 21 22 23 25 21 14 13 15 14 14 14 12 12 13 11 10 11 12 12 12 13 13 13 13 13 13 14 14 15 15 15 14 13
25 25 25 26 27 28 28 28 27 25 25 28 29 31 34 33 31 33 33 29 29 33 32 27 24 22 21 22 23 23 24 29 35 41 45 47 49 45 36 30 29 26 22 21 20 20 18 18 23 29 28 24 22 20 20 23 23 17 14 15 16 15 15 12 10 11 12 11 12 12 12 12 13 13 13 13 13 13 14 14 14 15 14 14 13
24 24 25 26 26 28 28 26 24 25 28 31 31 31 33 32 30 33 33 27 26 28 27 25 23 19 18 20 22 22 23 26 30 37 43 47 50 48 38 31 30 28 22 19 20 18 18 21 23 27 29 28 24 21 21 23 25 22 15 14 16 16 14 12 10 10 11 11 12 13 13 13 12 12 12 12 12 12 12 12 13 13 12 12 13
24 25 26 25 26 28 26 23 23 26 30 33 32 31 32 29 27 31 33 29 25 25 24 23 22 21 20 21 22 22 21 22 27 33 38 44 50 48 38 30 31 30 22 18 20 19 19 22 22 22 28 29 25 23 22 23 25 25 19 15 15 15 14 12 11 11 12 12 13 13 13 13 12 12 12 11 10 10 10 10 10 11 12 14 15
28 24 25 25 25 25 22 22 25 26 28 33 33 31 30 28 26 29 33 31 28 27 27 24 23 23 22 21 23 24 21 19 24 31 37 43 49 47 36 28 31 30 23 20 21 19 18 21 21 21 26 29 26 25 25 22 24 27 24 18 16 14 14 14 13 12 12 12 12 13 12 12 12 12 11 11 11 11 11 11 11 11 13 14 14
30 24 22 22 21 21 22 24 26 25 27 32 32 29 29 29 27 28 31 32 29 25 24 24 24 24 23 21 21 22 22 21 24 32 38 43 49 48 37 29 32 31 24 22 23 20 18 20 20 20 24 27 27 26 25 22 23 27 27 23 19 15 15 15 14 12 12 12 12 12 11 11 11 11 11 12 12 12 12 11 12 12 13 12 12
26 25 22 21 20 21 23 26 25 25 28 31 28 26 29 30 28 27 28 29 28 23 22 25 26 25 25 23 19 19 21 22 26 35 42 46 50 50 40 33 35 34 27 24 24 21 20 21 21 22 26 28 27 26 24 23 24 26 24 22 20 18 16 15 14 14 13 12 11 10 10 10 11 12 12 12 12 12 12 12 13 13 12 11 11
19 18 17 18 19 19 22 25 26 25 28 30 26 25 29 30 27 26 25 26 26 25 25 26 26 25 24 24 23 21 21 23 29 36 42 47 52 54 48 41 40 37 31 28 28 25 23 23 23 24 27 27 24 23 22 21 22 23 21 20 19 19 18 17 16 16 15 13 12 11 11 11 12 11 12 12 12 11 12 12 12 11 10 10 12
16 15 14 13 15 17 19 23 26 26 26 27 25 23 25 27 27 26 26 26 28 29 29 29 29 26 22 22 25 26 27 32 35 37 39 46 53 57 55 49 43 38 34 31 29 27 25 23 22 22 23 23 22 22 22 21 20 20 21 21 20 20 19 19 18 17 16 15 13 13 12 12 12 11 11 12 12 12 12 12 12 10 10 10 12
14 13 13 15 16 17 19 23 25 25 24 24 23 21 20 21 23 25 27 27 28 31 34 34 34 32 28 25 25 27 28 31 35 37 40 46 52 54 54 51 46 43 40 36 30 26 25 24 22 22 22 22 23 23 22 21 21 20 20 21 22 21 20 20 19 18 17 16 15 14 13 12 12 12 12 12 11 11 12 12 11 10 10 12 12
12 9 10 16 18 16 19 22 22 22 22 22 22 21 20 18 16 18 22 25 27 30 33 33 33 34 32 28 26 27 27 26 29 34 39 45 51 53 53 52 49 46 43 37 28 24 25 24 22 22 22 21 23 23 22 21 21 20 19 20 21 22 21 20 19 18 17 16 16 15 14 13 13 13 13 12 11 11 11 10 9 9 11 11 11
9 9 13 17 16 14 16 17 16 17 19 20 21 21 21 19 16 15 16 18 23 27 29 29 31 32 32 29 26 27 28 27 27 30 35 43 49 51 51 52 50 47 43 36 26 22 24 23 22 22 23 21 22 23 22 21 20 20 19 19 19 20 21 20 19 18 17 16 15 16 16 15 14 13 12 11 11 11 10 9 8 10 12 12 10
3 5 11 14 13 14 15 14 14 14 16 17 18 19 20 20 19 18 17 16 17 20 23 25 27 28 29 27 25 25 26 27 26 28 33 40 47 48 47 48 46 44 44 39 28 23 24 23 22 23 23 21 21 21 21 21 20 19 19 18 18 18 19 19 19 18 17 16 15 15 16 16 16 15 13 12 12 11 10 9 10 12 13 12 10
4 3 4 6 8 10 10 9 11 12 14 16 16 17 18 19 19 20 21 18 16 16 17 20 23 25 26 26 25 23 24 24 24 26 31 38 44 44 42 39 37 38 40 35 26 23 23 24 24 23 22 21 21 21 21 21 20 18 18 17 17 17 18 18 19 18 18 18 17 16 16 16 16 15 14 13 13 11 10 10 12 13 14 12 10
6 6 5 3 3 6 5 4 8 10 11 14 15 17 19 21 21 22 22 18 15 15 16 18 22 25 26 25 24 23 22 23 24 25 30 37 43 43 40 37 36 37 36 31 24 23 24 23 23 23 22 21 20 19 19 19 18 18 18 16 17 17 18 18 19 19 18 18 18 17 17 17 16 16 15 14 13 12 11 12 13 13 13 11 10
6 7 6 3 2 1 3 3 5 9 10 12 13 15 18 19 20 20 18 15 14 15 17 21 22 22 22 23 23 21 21 21 23 24 29 37 43 44 41 38 37 36 34 30 27 26 25 22 20 21 21 20 19 18 18 17 17 18 18 17 17 19 18 19 19 18 18 19 18 18 18 18 17 16 15 14 14 13 13 13 13 12 12 11 11
9 9 10 7 4 1 1 1 3 7 9 10 11 12 14 15 16 16 14 14 16 18 20 22 22 20 21 24 24 23 23 22 22 25 30 37 42 41 37 36 36 36 35 33 30 28 26 23 20 20 20 19 18 18 18 18 18 18 18 18 19 19 19 19 19 17 17 19 18 18 18 18 17 16 16 15 15 14 14 13 13 12 12 12 13
10 10 10 8 6 4 2 1 3 4 7 8 9 11 13 14 14 13 12 13 16 19 20 21 19 16 20 26 28 28 28 26 26 30 33 35 37 36 33 34 35 34 33 31 29 26 24 21 20 21 20 18 18 19 19 19 18 17 18 18 18 18 18 18 18 16 16 17 18 18 18 17 17 17 17 16 16 16 15 14 13 12 12 12 13
9 9 10 9 6 5 3 1 1 3 5 7 8 9 11 12 12 13 13 14 18 19 19 19 18 17 21 29 33 33 33 31 29 31 31 31 32 32 31 33 34 32 31 30 27 25 23 19 19 21 21 19 19 20 20 18 17 18 19 18 17 18 18 18 17 17 16 17 17 18 17 17 17 18 18 17 17 16 15 15 14 14 14 14 13
8 8 9 10 8 6 5 3 2 1 3 5 6 7 9 9 10 12 13 16 19 19 18 18 17 18 25 33 35 35 36 37 35 34 34 33 32 31 30 30 30 29 30 30 26 23 23 20 18 20 22 21 21 21 19 16 17 18 19 18 18 18 19 17 17 17 17 16 17 18 17 17 18 18 18 17 16 15 15 15 14 14 14 15 14
10 8 8 9 8 7 6 6 4 3 2 3 3 4 6 8 9 11 13 14 17 18 16 15 16 18 26 34 34 32 33 33 33 33 34 33 32 30 28 29 29 29 29 29 25 22 22 21 19 21 23 21 19 18 17 17 18 19 19 17 18 18 18 17 17 18 18 17 17 18 18 18 18 18 18 17 16 16 15 15 14 13 13 13 14
9 9 9 9 8 7 6 6 6 5 5 4 3 3 4 6 7 9 10 12 14 15 14 14 17 21 27 32 32 29 28 26 25 27 30 32 33 30 27 27 29 29 27 26 24 22 22 21 19 20 21 19 17 16 15 16 19 20 18 18 18 18 17 17 16 17 18 18 17 18 20 20 18 17 17 16 16 15 15 14 14 14 13 13 14
9 9 9 9 9 8 7 7 8 8 8 7 6 5 5 5 4 5 7 9 11 12 13 15 19 24 28 30 28 24 24 25 25 25 26 29 30 28 23 22 25 25 23 22 21 21 21 20 18 17 16 16 16 16 16 16 18 19 18 17 17 17 17 17 16 16 18 19 18 18 20 20 19 17 16 16 16 15 15 14 14 14 13 14 15
10 9 9 8 9 9 9 8 9 9 9 9 8 7 6 6 6 6 7 9 10 12 14 17 20 25 28 27 21 18 21 25 27 26 25 25 24 23 21 23 25 24 22 21 21 22 22 20 17 16 16 14 14 15 16 17 18 17 16 16 16 16 17 18 18 16 17 19 19 18 18 19 19 18 17 16 15 16 16 15 15 15 15 15 15
10 10 9 9 10 10 10 9 9 8 9 10 10 9 8 8 8 8 9 10 12 13 15 18 20 24 24 20 16 17 21 24 24 24 24 23 22 22 21 21 22 22 21 20 20 21 20 18 17 16 17 16 15 15 16 16 16 15 15 15 15 15 16 17 18 18 18 19 19 17 16 17 18 18 18 18 17 16 17 17 16 16 17 17 16
11 10 10 11 12 11 11 11 11 10 10 11 12 12 11 11 11 11 12 13 13 14 15 17 20 22 19 16 15 18 21 21 22 23 23 22 21 21 19 17 17 18 17 15 15 17 17 16 16 17 18 17 16 15 15 15 15 14 14 13 13 14 14 15 16 17 18 18 18 17 15 15 15 16 18 19 18 17 16 17 17 17 17 17 17
11 12 11 11 11 11 11 12 12 12 11 12 13 13 12 13 13 13 13 14 14 13 14 15 18 19 18 15 15 16 16 17 19 20 19 19 19 19 18 18 18 17 15 14 15 17 17 15 16 18 20 19 17 16 15 14 13 12 12 12 12 13 14 14 14 15 16 16 16 16 15 14 14 14 15 18 19 17 15 15 16 17 17 17 16
11 12 12 11 11 10 9 10 11 12 11 12 12 13 13 13 13 13 14 14 14 14 14 14 16 17 16 15 14 13 13 14 15 16 16 16 17 17 17 17 16 14 13 13 14 15 15 14 16 20 23 22 21 19 19 18 15 13 12 12 13 14 15 15 13 13 13 14 14 14 14 14 14 13 13 15 18 19 16 15 15 15 16 17 17
14 13 11 11 10 10 11 11 11 10 10 10 10 11 13 13 13 13 14 15 15 15 15 14 15 16 15 15 15 15 14 14 15 15 15 16 16 17 18 17 15 13 13 13 13 14 15 15 17 20 21 21 22 22 21 21 19 16 14 13 14 15 17 16 14 13 13 13 12 13 13 14 13 13 12 12 13 15 15 14 14 14 15 16 17
20 19 17 15 13 11 10 10 9 8 8 8 9 9 11 12 13 13 14 15 15 15 15 14 14 15 15 15 15 15 16 16 15 15 16 17 18 18 20 20 18 16 13 11 12 14 15 16 16 18 18 19 19 19 19 19 19 18 16 16 16 16 17 17 16 15 15 14 12 11 13 14 14 14 13 13 12 12 13 14 14 14 14 15 16
Wind_Direction
197 198 199 198 198 199 198 197 201 207 210 210 209 207 207 207 206 201 198 200 201 199 197 197 198 198 198 199 200 200 198 198 200 200 198 200 202 205 207 207 210 215 216 217 215 214 216 215 216 218 212 206 207 206 204 206 206 211 218 219 221 224 219 230 238 191 138 155 174 170 180 192 209 225 221 211 223 248 251 231 233 251 269 268 260
197 196 197 197 196 196 198 198 201 205 210 211 211 209 207 206 205 201 199 202 203 199 197 196 196 196 197 198 198 198 197 198 199 198 198 202 202 205 208 207 210 215 215 214 211 207 208 210 208 203 199 198 200 201 200 201 201 203 211 215 214 218 211 216 233 210 157 155 171 181 196 209 220 222 215 218 227 236 248 243 236 249 262 263 253
195 195 195 196 195 195 196 198 200 202 207 211 211 209 206 205 203 201 202 204 203 201 198 195 195 195 197 198 196 195 196 198 198 197 201 203 202 206 209 206 208 214 214 210 209 206 205 206 204 196 193 195 197 199 196 196 198 200 206 209 209 214 209 210 231 217 154 156 187 198 196 206 224 222 211 218 225 236 253 249 238 245 252 258 253
192 192 194 194 193 194 194 196 198 200 205 209 211 208 205 203 202 201 203 205 202 201 200 197 197 198 197 198 197 194 194 197 196 197 203 206 205 206 203 198 201 208 212 210 208 207 203 202 201 193 190 192 192 193 191 188 194 197 197 200 202 207 204 201 214 179 141 163 201 206 192 192 219 230 219 216 220 230 246 247 246 251 248 250 254
197 191 192 191 190 192 192 193 198 200 204 208 211 208 205 203 200 199 202 205 201 200 201 199 198 199 198 198 198 195 194 194 193 199 206 206 205 205 199 193 198 207 211 211 209 206 202 201 199 191 189 191 188 188 187 184 189 191 189 194 194 189 185 183 179 162 169 191 202 198 188 190 210 224 224 230 233 231 234 236 242 255 255 255 261
206 193 190 190 190 192 192 192 196 200 203 207 210 209 206 204 200 199 203 204 202 201 202 200 199 200 199 200 200 198 195 194 194 201 207 205 202 202 196 192 201 210 211 209 207 205 202 201 199 193 191 190 186 185 183 182 186 186 187 192 186 175 173 175 178 187 203 207 194 185 190 197 206 220 226 234 246 249 249 246 245 250 249 254 266
208 196 190 191 191 192 194 194 196 199 202 206 208 207 205 204 202 201 202 201 201 202 202 200 200 200 200 201 202 200 197 196 198 201 205 204 199 195 189 191 203 211 210 206 205 203 202 201 199 195 193 190 185 182 179 179 182 182 184 187 176 169 176 186 191 197 202 203 193 190 199 202 209 224 222 212 235 257 257 260 266 260 249 258 273
205 195 192 193 193 194 195 195 196 198 200 203 206 205 204 204 203 201 200 200 201 203 203 201 199 200 202 202 202 200 196 195 198 202 203 200 192 185 184 188 198 205 204 204 203 201 200 201 198 195 194 191 185 181 177 175 176 178 179 178 173 174 184 191 193 196 199 200 198 198 203 200 205 220 212 197 231 248 234 242 277 284 278 279 281
205 195 194 194 194 195 196 196 196 195 197 202 205 205 204 203 201 198 197 199 202 205 204 200 197 201 203 202 201 201 197 194 198 200 196 189 182 181 182 185 195 202 201 201 201 200 199 199 197 195 193 191 186 181 178 175 175 177 177 177 177 182 188 191 193 198 199 199 203 204 202 199 203 211 209 212 235 247 215 234 272 281 283 286 287
209 197 196 196 195 196 196 196 195 192 195 201 204 204 203 201 201 198 195 199 204 206 204 199 197 201 202 200 199 198 196 196 197 193 187 181 178 179 179 184 200 206 201 198 199 198 198 197 196 196 193 190 187 182 179 177 176 177 178 179 180 184 191 194 196 200 201 202 208 206 201 207 210 208 213 223 234 245 257 261 270 279 285 289 292
214 204 199 197 195 196 196 194 193 192 195 200 203 203 200 197 198 196 194 198 204 206 203 199 196 199 202 200 197 193 191 193 192 187 186 185 181 177 177 185 202 207 201 198 198 196 196 194 193 195 194 191 189 186 184 182 180 178 179 182 182 184 192 197 199 203 204 205 209 206 206 216 214 207 216 224 223 231 251 260 269 280 287 294 300
214 208 201 198 196 197 195 192 192 193 193 197 201 200 197 195 196 195 193 196 202 204 203 199 196 198 202 199 193 188 187 189 189 188 190 191 186 178 175 182 196 202 200 199 198 195 194 192 188 189 191 190 189 190 190 189 187 183 182 184 186 188 193 195 197 200 203 209 210 204 213 223 211 205 219 223 221 229 240 252 264 273 279 291 299
213 207 201 199 198 197 195 191 191 192 192 194 198 198 195 194 196 195 193 195 200 203 202 200 197 198 201 199 190 184 186 189 190 192 195 195 190 181 175 181 191 198 200 200 199 196 194 191 184 182 187 188 187 187 191 193 193 190 188 188 190 194 197 196 195 190 187 201 218 211 214 224 214 209 213 211 216 237 248 259 267 273 284 294 299
210 205 200 199 198 196 193 192 192 192 191 192 194 195 195 195 196 195 193 194 200 204 201 198 197 197 201 200 190 182 188 193 194 197 197 195 191 184 177 181 190 197 201 200 200 198 194 190 184 180 183 185 183 182 185 190 192 193 193 193 195 199 200 199 201 196 186 187 222 226 214 212 217 211 196 194 211 236 255 272 284 290 294 294 289
208 205 202 198 197 196 193 193 193 191 190 191 192 194 195 195 195 193 191 193 200 203 198 195 198 199 201 200 189 181 192 197 198 199 197 194 193 188 182 185 195 200 201 199 200 198 194 190 186 182 181 183 184 182 180 181 184 187 191 193 195 202 204 203 206 205 200 198 212 231 206 195 201 195 177 187 211 233 254 273 284 285 283 282 281
208 206 203 199 197 195 193 193 193 191 190 189 191 194 195 195 194 190 189 193 199 199 194 195 200 199 199 199 189 182 194 199 199 199 197 194 194 191 187 191 199 200 198 197 198 197 194 191 188 185 183 184 187 185 179 176 175 176 181 185 188 196 203 206 207 204 203 206 207 210 199 193 198 200 189 185 191 210 258 274 272 270 272 277 284
212 205 204 202 198 195 193 193 191 190 189 189 191 194 194 194 193 187 186 192 195 191 191 197 201 197 198 201 192 184 194 199 199 199 196 194 193 190 187 189 193 194 194 195 197 197 195 192 189 187 185 185 188 186 180 175 173 172 177 182 187 193 197 204 211 210 207 209 210 212 211 205 209 214 212 213 218 230 256 270 271 275 281 286 292
218 211 207 204 200 196 195 195 192 190 190 189 190 193 193 193 190 186 186 189 190 190 193 199 201 197 201 205 196 188 194 197 198 198 196 194 192 188 185 186 188 189 191 192 195 196 196 194 193 190 188 189 191 188 181 176 173 174 178 181 187 193 192 195 207 214 215 215 215 217 219 220 220 223 229 235 238 239 243 253 270 283 286 288 293
217 217 213 205 201 199 197 197 194 191 190 190 190 192 194 191 186 186 188 188 186 191 195 198 199 199 203 207 200 192 194 196 197 198 196 194 192 186 182 183 185 185 187 189 192 195 195 194 193 193 194 194 193 189 184 179 175 177 181 183 187 193 191 186 191 205 214 217 219 222 225 228 231 233 239 244 242 238 237 244 261 272 274 280 289
212 219 218 208 203 203 201 200 198 194 191 191 191 192 192 187 183 184 190 190 187 190 194 196 199 201 203 205 201 195 194 194 195 198 197 195 191 185 179 181 184 182 184 186 189 192 192 190 191 195 200 198 194 192 190 186 178 179 185 186 191 193 189 187 188 193 204 211 217 223 226 229 233 235 237 242 243 243 243 242 247 254 263 273 280
210 213 216 211 208 208 208 206 203 200 195 190 187 187 185 185 185 184 188 190 187 189 194 197 200 201 201 201 198 195 198 197 195 197 198 196 192 185 178 181 183 181 183 186 186 188 188 186 189 194 198 198 194 194 195 191 182 180 189 193 196 192 185 187 191 190 195 202 207 215 220 222 226 228 228 232 236 238 241 240 239 243 251 262 271
213 211 211 211 210 210 209 207 204 201 196 186 179 179 181 183 185 186 189 190 186 186 190 194 198 200 199 197 195 195 200 201 198 197 198 196 192 186 180 182 184 181 182 184 183 187 188 183 186 191 194 196 195 195 198 194 185 181 193 200 199 190 183 186 191 192 198 205 205 211 217 218 221 225 225 228 230 229 231 234 232 235 242 250 260
212 212 211 207 208 209 207 205 199 191 183 177 173 176 181 184 186 189 191 189 181 181 186 191 194 194 192 192 193 192 195 201 202 200 198 196 193 188 184 185 186 182 181 181 181 185 184 179 185 193 196 195 195 195 195 193 189 187 195 203 199 189 184 189 191 190 200 210 211 216 222 222 224 227 226 229 233 231 230 232 232 234 239 245 253
211 208 212 206 203 206 204 198 190 177 171 172 173 175 181 186 189 190 191 185 175 176 183 188 188 185 185 189 191 187 186 193 201 203 200 197 194 189 185 184 185 183 179 178 180 183 183 184 190 197 197 195 195 195 191 189 190 191 193 197 197 191 188 197 201 196 203 214 217 220 225 226 228 233 232 232 235 233 233 236 235 234 239 249 259
229 208 209 206 201 202 199 189 182 175 171 174 178 180 185 190 189 188 188 187 180 178 180 181 182 185 188 187 187 185 181 185 196 201 201 199 195 189 184 183 184 182 178 177 181 182 185 189 192 194 196 197 195 191 189 189 193 195 194 190 191 193 197 205 208 206 211 217 218 221 226 227 230 235 237 238 238 236 237 239 237 240 248 257 262
250 221 207 207 202 196 190 183 180 176 171 174 181 186 190 193 188 185 188 191 187 183 181 180 184 190 190 184 184 185 179 176 187 195 198 199 195 189 185 184 181 178 176 176 178 181 185 187 186 186 192 196 193 188 188 189 193 198 201 197 193 197 203 207 209 211 214 218 220 224 227 229 232 234 233 235 238 239 239 240 243 248 253 257 263
253 234 210 205 199 189 184 184 182 175 169 174 182 189 192 191 185 183 189 191 186 179 177 182 187 189 187 182 180 178 171 167 179 189 193 195 193 188 186 183 176 173 171 171 175 179 178 179 182 185 189 193 192 190 190 190 193 200 205 205 204 206 208 209 212 216 218 220 224 226 227 230 233 233 230 229 232 236 240 242 247 252 255 260 269
252 238 216 199 192 189 186 182 179 176 176 180 186 189 188 187 184 184 188 190 185 179 179 186 188 185 183 181 173 165 164 168 181 189 191 191 190 187 184 180 177 175 171 168 170 171 169 170 176 181 184 186 187 187 190 193 197 201 203 205 206 209 212 213 217 220 223 225 226 226 228 231 232 232 233 230 229 234 238 238 242 249 255 262 270
262 255 234 205 192 191 187 178 175 177 181 185 189 187 183 184 186 187 188 189 189 185 181 184 185 182 183 182 175 169 174 184 193 196 196 193 191 188 186 184 182 179 176 171 168 165 164 167 171 174 179 181 181 184 188 191 196 200 202 202 204 207 211 215 218 220 223 224 223 223 227 231 231 230 232 233 234 237 238 237 240 247 256 265 271
260 256 250 232 208 194 184 178 176 177 179 182 184 181 181 187 192 193 193 195 196 194 191 189 188 187 186 187 185 185 191 198 202 203 201 197 194 191 189 188 184 180 177 174 169 165 166 169 170 173 178 179 181 185 188 190 193 197 199 202 205 208 211 214 217 220 220 220 220 221 225 229 230 229 230 235 239 239 237 237 240 247 257 263 266
251 238 234 242 233 204 183 180 181 180 178 178 175 169 170 180 189 193 194 196 199 203 203 201 199 196 194 192 193 195 199 205 208 207 204 199 195 191 188 187 185 183 181 176 170 169 174 176 175 177 180 181 184 188 190 192 194 196 197 201 206 210 213 215 217 217 216 216 219 222 225 226 227 231 235 238 239 239 238 236 234 240 249 254 261
248 249 236 241 236 207 183 181 181 179 175 172 170 165 159 160 171 185 192 195 198 203 205 204 204 204 201 197 195 196 201 207 210 209 206 200 194 190 188 188 187 186 184 178 172 173 178 178 177 178 180 184 187 189 191 192 194 197 200 201 203 208 213 215 216 214 213 213 214 217 221 223 226 230 234 236 237 241 245 244 238 244 256 260 267
232 247 245 238 226 203 188 179 170 170 171 168 167 167 163 161 165 172 180 189 196 200 202 203 205 206 205 203 203 205 210 212 209 208 207 200 193 190 189 187 186 184 180 176 176 179 180 180 181 182 184 187 189 190 193 195 195 198 203 204 203 206 210 213 214 213 214 215 213 211 213 217 224 229 230 232 237 239 243 247 248 255 264 268 269
197 228 243 236 221 214 208 184 162 165 172 171 169 169 170 172 173 170 168 171 182 192 197 200 201 201 201 201 205 212 216 215 210 208 207 200 193 189 186 182 181 180 179 178 180 182 182 182 184 184 185 189 189 188 191 196 198 201 204 206 206 206 208 211 212 212 214 217 215 210 208 211 219 224 224 228 234 233 233 241 248 253 260 262 264
27 5 301 273 260 250 230 190 173 177 178 176 175 173 172 175 177 176 175 173 171 178 186 188 190 194 197 200 204 209 212 211 208 207 203 196 190 184 177 171 171 175 180 182 183 184 185 187 187 186 187 189 189 188 190 195 199 203 205 206 208 208 208 210 211 213 218 221 218 213 210 210 214 217 220 224 226 222 226 239 244 248 252 253 256
19 5 357 348 302 287 270 210 197 195 183 178 179 178 178 181 183 184 186 184 176 172 170 169 176 188 196 201 203 205 207 207 205 202 198 192 185 178 172 170 172 176 181 184 185 186 189 189 187 186 188 187 186 188 191 192 197 203 205 206 210 212 209 209 212 215 219 222 221 217 214 213 214 215 218 220 218 218 230 241 242 244 247 251 261
24 8 4 35 116 232 275 244 209 199 188 180 179 178 179 182 184 186 187 182 169 160 154 156 164 174 184 189 193 196 199 202 203 200 195 189 184 179 178 178 177 177 180 182 184 187 189 189 188 187 187 185 184 187 191 194 201 207 205 205 215 219 216 215 218 219 217 219 221 220 218 217 215 214 214 215 217 224 235 238 238 242 245 249 262
17 8 1 6 21 17 312 218 198 195 186 176 173 174 175 176 179 181 180 171 161 154 152 158 166 170 171 173 178 183 185 185 185 186 184 181 180 180 182 181 180 181 183 184 185 187 188 190 191 187 183 183 184 186 191 199 208 211 206 206 216 221 220 223 226 222 215 214 218 220 219 216 213 211 212 216 222 228 232 232 232 237 241 243 248
16 11 10 8 5 5 25 141 172 174 170 167 166 170 172 172 172 174 170 163 160 158 159 165 174 175 168 165 168 171 170 168 169 172 174 176 179 182 183 184 184 186 186 184 184 188 189 189 187 184 185 191 194 196 201 206 210 214 215 216 219 219 220 226 228 222 215 214 214 215 215 211 210 213 216 219 223 224 225 227 228 233 238 241 241
23 20 18 17 13 10 16 56 156 154 160 164 166 169 173 173 173 173 168 163 164 167 170 173 176 176 173 171 170 167 164 164 169 171 173 177 182 184 186 188 188 187 186 184 184 187 189 186 182 182 189 198 202 204 209 209 207 212 217 218 218 218 219 223 222 217 216 215 209 208 209 210 213 218 219 219 220 219 219 224 226 230 237 241 244
25 27 24 23 22 17 18 26 47 114 149 159 166 172 177 177 176 177 174 170 170 175 178 177 176 178 180 178 175 169 167 169 173 174 175 179 184 187 190 191 189 186 184 183 183 185 187 185 181 182 188 195 201 207 209 205 208 219 221 216 217 220 220 219 217 213 213 210 203 203 210 213 216 218 217 216 217 217 217 222 224 225 231 234 235
23 27 27 27 26 26 29 30 29 37 82 128 153 171 179 180 179 179 176 173 174 178 180 174 170 174 179 177 172 168 169 172 174 174 173 176 181 186 188 189 188 187 186 186 186 186 184 183 184 185 186 189 198 204 200 192 203 222 228 221 219 221 218 215 215 211 210 209 205 205 212 216 217 218 217 216 216 216 219 222 223 224 231 233 229
28 30 32 31 32 40 45 43 42 47 56 69 86 119 156 170 175 175 173 172 175 176 172 165 164 168 172 171 168 165 165 167 170 173 172 171 176 181 185 187 187 187 187 188 190 186 179 176 178 180 182 184 192 201 199 190 198 214 220 215 214 215 212 212 213 209 207 209 208 208 212 215 217 219 218 215 215 217 220 222 223 226 233 235 232
31 34 38 37 34 38 47 58 70 75 75 77 83 97 120 131 131 144 154 157 160 159 157 157 160 161 162 164 165 165 163 163 167 171 173 172 175 178 178 177 178 178 177 176 175 172 169 168 170 177 184 185 186 196 205 203 202 208 211 207 207 208 206 207 209 206 203 207 210 212 213 213 215 218 218 214 215 219 222 222 224 227 231 231 231
32 31 39 43 42 44 48 58 74 87 89 89 88 87 95 105 104 110 126 132 134 137 143 150 155 157 157 159 160 158 157 159 162 167 170 169 167 165 161 160 163 168 171 171 171 172 173 174 177 186 193 190 186 195 207 208 205 206 206 203 203 204 203 204 207 208 206 207 210 212 212 210 210 214 216 215 215 219 222 224 225 226 228 231 231
43 43 52 55 51 53 54 55 67 83 89 92 94 90 90 100 106 107 115 120 123 128 136 143 150 153 155 155 152 149 151 154 156 159 162 161 159 157 156 157 163 170 176 180 184 186 183 180 182 186 187 186 189 196 201 200 200 202 201 199 201 204 205 207 210 212 211 209 207 208 210 208 207 211 216 218 221 222 222 224 226 225 224 227 231
50 51 63 69 65 66 69 69 73 79 82 91 99 98 96 102 105 104 108 112 115 123 134 142 148 150 151 150 148 147 149 153 157 159 161 162 162 159 157 157 162 168 171 173 177 177 173 174 180 181 178 179 184 188 189 191 193 194 194 195 199 202 205 207 208 208 208 205 203 205 208 207 207 212 216 218 221 222 220 220 224 225 224 223 226
50 46 55 68 73 77 80 79 79 80 82 92 102 104 104 105 103 99 103 108 113 122 133 139 144 147 148 148 150 148 146 150 156 159 161 163 161 159 158 158 157 157 158 160 164 166 167 169 175 177 177 177 178 176 178 184 187 188 192 196 200 201 201 201 200 201 202 201 202 205 209 209 210 212 213 214 217 220 220 219 220 221 223 223 223
52 56 57 58 58 61 67 74 84 89 90 97 105 107 109 111 108 105 109 113 117 124 130 132 137 143 144 145 148 148 145 147 150 152 154 156 156 158 161 159 153 153 156 158 160 164 165 168 176 184 188 190 189 185 184 183 182 184 194 202 205 204 202 198 198 199 199 198 200 204 206 209 211 212 213 214 217 219 223 226 224 221 219 220 221
32 44 52 52 53 57 62 70 82 88 87 91 98 101 105 108 108 108 109 108 109 114 120 125 131 136 138 139 140 139 138 141 143 145 149 153 156 160 162 158 152 152 154 155 160 169 173 179 188 195 197 200 201 201 202 201 197 196 201 210 213 211 207 205 205 202 195 193 199 204 206 208 212 214 214 215 214 215 219 226 229 226 222 220 219
27 33 38 40 44 50 55 64 75 81 83 88 90 89 92 96 97 98 99 99 100 105 111 118 127 134 139 142 144 145 147 150 152 156 161 165 168 172 173 173 173 173 167 163 173 186 192 196 201 201 200 202 204 204 208 211 210 208 210 215 217 217 216 216 216 211 203 199 201 205 208 211 213 214 216 218 218 219 221 223 225 228 228 224 219